sat.trackr.live / text

‹ back to catalog

STARLINK-35563

NORAD 66087 · 2025-236B

PAYLOAD ACTIVE UNKNOWN

§ Identity

Operator
Country
US
Launch date
2025-10-19
Launch site
AFWTR
Launch vehicle
Mass (kg)
RCS (m²)

Purposes: comms

External: N2YO · Heavens-Above · Gunter

§ Orbital elements

Epoch: 2026-05-25T03:55:16.993632Z

Period
94.11 min
Inclination
53.1592°
Eccentricity
0.0001462
Mean motion
15.30200691 rev/d
Perigee alt
474.2 km
Apogee alt
476.2 km
Semi-major
6,853.4 km
B*
5.7103e-4
RAAN
108.6184°
Arg perigee
87.2193°
Mean anomaly
272.8975°
Rev number
3,459

§ Raw data

STARLINK-355631 66087U 25236B   26145.16339113  .00016591  00000+0  57103-3 0  99902 66087  53.1592 108.6184 0001462  87.2193 272.8975 15.30200691 34593

JSON: /api/v1/satellites/66087 · /tle

For live sub-satellite position, see the globe view (requires WebGL).

§ Visibility from observer

Set your observer location to see the next 7 days of passes ≥ 10°. The values pass through the URL so the page stays shareable.

No JS? Fill the form by hand. The geolocation button needs JavaScript.